Volver al catálogo

STARLINK-37238

ActivoComunicacionesVLEO
NORAD 69247·PAYLOAD·🇺🇸 United States

Lanzado May 29, 2026 desde Cape Canaveral Space Force Station

Loading…

Próximos Pases (próximas 24 horas)

TLE

ActualizadoSource: CelesTrak SupGP

Época: Sep 14, 2026, 22:37 UTC

1 69247C 26117K   26257.94284722 -.00038004  00000+0 -11224-2 0  2570
2 69247  53.1571 179.6187 0001225  81.8175 342.1323 15.34422623    12

Sigue STARLINK-37238 en tiempo real con AllMySat

Download on the App Store